Change the Weather History Date:

Friday, November 1, 2013

  Actual Average Record
Temperature  
Mean Temperature 75 °F -  
Max Temperature 86 °F 83 °F 91 °F (1979)
Min Temperature 66 °F 65 °F 44 °F (1993)
Cooling Degree Days 10    
Growing Degree Days 25 (Base 50)    
Moisture  
Dew Point 68 °F    
Average Humidity 81    
Maximum Humidity 97    
Minimum Humidity 51    
Precipitation  
Precipitation 0.00 in - - ()
Sea Level Pressure  
Sea Level Pressure 29.96 in    
Wind  
Wind Speed 4 mph (South)    
Max Wind Speed 14 mph    
Max Gust Speed 17 mph    
Visibility 10 miles    
Events      
Averages and records for this station are not official NWS values.
T = Trace of Precipitation, MM = Missing Value Source: NWS Daily Summary

Daily Weather History Graph

Daily Weather History Graph

Search for Another Location

Airport or City:

Trip Planner

Search our weather history database for the weather conditions in past years. The results will help you decide how hot, cold, wet, or windy it might be!

Date:

Astronomy

Nov. 01, 2013 Rise Set
Actual Time 7:36 AM EDT 6:44 PM EDT
Civil Twilight 7:12 AM EDT 7:08 PM EDT
Nautical Twilight 6:45 AM EDT 7:35 PM EDT
Astronomical Twilight 6:18 AM EDT 8:02 PM EDT
Moon 5:37 AM EDT (11/1) 5:28 PM EDT (11/1)
Length of Visible Light 11h 55m
Length of Day
11h 07m
Waning Crescent, 4% of the Moon is Illuminated
Nov 1
Waning Crescent
Nov 3
New
Nov 10
First Quarter
Nov 17
Full
Nov 25
Last Quarter

Hourly Weather History & Observations

Time (EDT) Temp. Heat Index Dew Point Humidity Pressure Visibility Wind Dir Wind Speed Gust Speed Precip Events Conditions
12:53 AM 72.0 °F - 68.0 °F 87% 30.01 in 10.0 mi ESE 3.5 mph - N/A   Clear
1:53 AM 72.0 °F - 66.9 °F 84% 29.99 in 10.0 mi ESE 3.5 mph - N/A   Clear
2:53 AM 70.0 °F - 66.9 °F 90% 29.98 in 10.0 mi Calm Calm - N/A   Clear
3:53 AM 69.1 °F - 66.9 °F 93% 29.97 in 10.0 mi Calm Calm - N/A   Clear
4:53 AM 68.0 °F - 66.0 °F 93% 29.97 in 10.0 mi Calm Calm - N/A   Clear
5:53 AM 68.0 °F - 66.0 °F 93% 29.98 in 10.0 mi Calm Calm - N/A   Clear
6:53 AM 66.9 °F - 66.0 °F 97% 29.99 in 10.0 mi ENE 3.5 mph - N/A   Clear
7:05 AM 68.0 °F - 66.2 °F 94% 30.00 in 9.0 mi ENE 3.5 mph - N/A   Partly Cloudy
7:53 AM 66.9 °F - 66.0 °F 97% 30.00 in 6.0 mi Calm Calm - N/A   Clear
8:53 AM 72.0 °F - 70.0 °F 93% 30.00 in 10.0 mi East 3.5 mph - N/A   Clear
9:53 AM 77.0 °F - 71.1 °F 82% 30.00 in 10.0 mi SSE 6.9 mph - N/A   Clear
10:53 AM 81.0 °F 84.4 °F 70.0 °F 69% 29.99 in 10.0 mi SSE 8.1 mph 17.3 mph N/A   Clear
11:53 AM 82.9 °F 85.8 °F 68.0 °F 60% 29.99 in 10.0 mi South 10.4 mph - N/A   Scattered Clouds
12:53 PM 82.9 °F 85.4 °F 66.9 °F 58% 29.96 in 10.0 mi Variable 5.8 mph - N/A   Mostly Cloudy
1:53 PM 84.9 °F 88.2 °F 68.0 °F 57% 29.93 in 10.0 mi WSW 12.7 mph - N/A   Partly Cloudy
2:53 PM 84.0 °F 86.3 °F 66.0 °F 55% 29.92 in 10.0 mi WSW 13.8 mph - N/A   Clear
3:53 PM 84.9 °F 86.6 °F 64.9 °F 51% 29.91 in 10.0 mi WSW 10.4 mph - N/A   Clear
4:53 PM 82.9 °F 85.0 °F 66.0 °F 56% 29.90 in 10.0 mi WSW 10.4 mph - N/A   Clear
5:53 PM 80.1 °F 83.2 °F 70.0 °F 71% 29.91 in 10.0 mi WSW 8.1 mph - N/A   Clear
6:53 PM 78.1 °F - 71.1 °F 79% 29.91 in 10.0 mi West 3.5 mph - N/A   Clear
7:53 PM 75.0 °F - 71.1 °F 87% 29.92 in 10.0 mi Calm Calm - N/A   Clear
8:53 PM 73.9 °F - 71.1 °F 91% 29.93 in 10.0 mi SW 3.5 mph - N/A   Clear
9:53 PM 73.9 °F - 71.1 °F 91% 29.94 in 10.0 mi Calm Calm - N/A   Clear
10:53 PM 73.0 °F - 71.1 °F 93% 29.94 in 10.0 mi South 4.6 mph - N/A   Clear
11:53 PM 73.0 °F - 72.0 °F 96% 29.94 in 10.0 mi South 4.6 mph - N/A   Clear